Wind_Speed
8 7 6 6 5 5 5 7 12 15 14 9 16 16 13 9 12 4 7 14 18 16 12 11 11 11 7 4 5 6 6 5 5 6 7 8 8 8 8 8 8 8 7 7 7 7 8 9 10
9 8 6 6 6 6 6 10 12 12 10 10 13 12 12 12 12 11 8 16 16 17 16 15 14 12 9 9 8 7 7 6 6 7 8 9 10 10 10 10 10 10 10 9 9 9 8 9 8
12 9 6 4 8 6 8 12 14 12 8 11 12 10 10 9 10 8 10 13 12 13 17 16 13 12 9 14 11 9 10 9 9 9 9 9 10 11 11 12 11 12 12 11 11 11 10 11 10
11 11 7 8 8 8 9 11 13 13 13 14 8 8 6 6 7 8 8 10 11 13 15 17 14 16 13 15 13 10 12 10 9 9 9 10 12 12 13 13 13 14 15 14 13 13 13 13 13
12 11 9 8 11 10 11 11 14 15 13 9 5 6 1 1 5 6 2 6 8 10 12 13 12 12 10 11 11 11 12 12 12 12 12 13 15 15 16 16 15 15 16 16 16 15 15 16 15
12 11 10 10 12 11 11 14 14 16 14 10 6 5 2 4 5 1 2 5 6 6 8 9 9 9 9 10 10 12 12 12 13 13 14 15 16 17 18 19 19 19 18 18 18 18 18 19 18
13 12 14 11 11 12 11 13 16 16 15 14 10 8 5 1 4 1 2 4 3 5 6 6 7 8 9 10 11 13 14 15 16 17 16 17 17 19 20 21 21 21 21 21 20 20 21 21 22
13 13 15 12 12 13 12 15 14 18 16 16 13 11 9 3 1 2 4 6 5 4 7 8 8 8 10 13 14 15 17 18 19 20 21 22 21 22 23 24 25 25 24 23 23 23 24 23 24
13 14 14 13 11 13 12 15 17 20 20 18 17 14 10 6 4 1 3 8 5 4 4 6 7 10 13 16 17 18 18 19 22 24 25 26 27 28 28 28 29 29 28 28 27 26 26 25 25
15 16 13 12 11 12 12 15 18 19 19 18 15 13 11 8 7 4 4 6 6 6 7 8 11 14 17 17 19 20 23 24 26 27 28 29 30 30 30 31 32 32 30 30 30 30 27 24 24
17 19 15 12 14 14 13 14 15 18 20 17 14 12 12 10 7 6 7 6 7 8 9 12 14 14 14 14 15 18 20 22 24 26 28 29 31 32 32 33 33 33 32 31 27 23 24 26 26
16 17 16 15 16 18 16 15 17 19 18 16 14 14 13 12 9 9 11 9 10 11 12 12 11 13 15 18 19 21 23 23 25 27 29 30 31 33 33 34 35 35 33 31 29 28 28 29 31
16 16 17 16 20 21 19 18 19 18 15 16 15 15 15 14 14 15 14 12 12 13 11 10 10 12 14 14 14 17 18 19 21 22 24 25 27 29 30 31 33 34 35 34 34 34 32 32 32
17 17 16 20 20 21 26 23 25 21 19 19 20 20 20 21 19 17 15 14 14 13 12 12 11 14 16 16 17 19 22 21 19 18 19 21 22 23 25 27 29 31 33 35 35 34 33 31 29
18 18 20 20 19 23 24 28 34 28 27 26 26 25 22 20 20 19 19 20 18 16 16 16 16 16 17 19 19 19 21 19 16 16 17 18 20 22 23 24 26 28 30 32 33 35 36 33 32
17 18 19 14 15 22 25 34 27 25 26 27 25 23 21 20 21 22 22 21 21 21 21 19 19 19 21 23 22 21 20 20 19 18 19 20 20 20 21 22 23 24 25 27 29 31 33 35 33
20 17 20 18 15 17 23 30 24 21 22 23 24 23 23 20 20 20 21 23 24 25 24 23 23 23 24 24 24 23 21 19 19 19 20 20 21 21 22 23 23 23 23 24 25 27 28 30 31
19 19 19 18 16 18 24 28 26 18 19 20 19 19 22 22 20 20 21 24 25 26 26 28 27 27 28 28 27 26 23 22 20 19 19 21 22 24 24 24 24 24 25 26 27 28 29 28 28
22 23 22 21 21 22 26 29 28 27 23 21 23 22 22 25 23 22 23 25 26 28 29 30 29 31 30 29 29 27 25 23 22 21 22 22 24 27 29 27 27 27 27 28 28 29 30 31 30
23 24 25 24 23 26 27 33 30 30 30 26 20 21 21 23 26 26 27 28 28 30 33 34 33 33 32 31 28 26 26 23 21 20 21 23 25 25 27 28 28 29 29 30 30 30 31 30 31
29 29 28 27 26 30 33 45 38 35 35 30 30 27 26 26 27 29 31 32 30 31 33 36 37 34 31 28 26 26 25 22 21 21 22 23 26 26 27 28 29 31 30 30 32 32 31 31 32
33 27 25 23 19 14 17 23 26 22 26 26 30 31 31 33 35 33 34 33 33 34 37 38 36 33 28 25 26 25 23 21 20 20 22 24 26 27 29 30 30 30 29 29 29 31 30 29 28
30 21 16 14 18 25 23 14 23 10 15 17 17 20 24 29 30 33 33 32 34 36 37 37 32 27 24 23 24 23 22 20 21 22 23 25 27 28 29 30 29 29 27 26 27 27 27 25 23
20 12 13 17 15 13 19 16 55 24 26 20 21 25 25 23 24 28 30 33 35 34 34 28 24 21 21 22 21 21 21 21 23 24 24 26 27 28 29 28 28 28 29 28 26 25 22 22 20
19 12 4 6 6 9 13 18 44 17 13 9 11 14 20 22 26 29 25 24 28 27 23 20 19 18 17 17 18 18 22 24 24 24 26 25 27 27 28 29 28 29 29 28 26 21 18 18 17
31 28 16 7 8 14 18 16 20 20 19 17 18 24 25 24 27 26 20 18 18 18 19 18 17 15 13 11 15 18 24 26 28 27 31 30 25 25 28 30 29 28 27 26 24 22 17 17 18
25 31 35 23 18 10 16 23 26 21 18 17 16 16 16 18 22 21 19 15 17 18 15 14 13 12 14 15 17 19 21 23 27 29 28 24 25 30 28 27 27 28 27 24 21 20 19 18 17
21 7 12 18 9 16 19 14 17 14 13 15 14 13 13 12 13 12 11 12 13 15 17 12 12 12 13 15 17 20 21 26 29 30 30 31 36 30 26 27 26 27 25 22 19 18 17 18 18
17 19 18 10 21 7 11 10 13 14 7 8 8 8 6 4 3 5 6 9 11 11 15 18 15 14 14 17 20 20 24 25 27 26 31 29 24 25 25 25 26 24 23 21 19 18 18 18 18
12 10 13 14 13 9 13 18 12 13 14 16 15 11 8 7 8 7 6 7 7 11 13 14 17 19 19 20 24 26 28 25 21 23 24 22 23 23 24 25 25 23 21 20 20 19 18 18 17
Wind_Direction
315 313 299 266 241 230 187 176 163 147 145 156 163 169 191 199 193 212 212 198 187 180 182 186 183 179 178 253 240 246 249 256 277 294 300 302 304 305 306 307 308 309 314 322 327 332 335 340 341
307 306 289 265 245 227 194 187 168 157 162 161 170 182 187 200 213 221 212 191 189 194 192 194 190 182 249 253 236 243 252 254 269 282 291 298 301 298 295 294 296 298 299 301 304 307 310 315 321
297 295 284 236 241 221 191 181 188 197 188 175 166 163 171 201 214 211 196 203 208 210 208 202 206 221 223 236 243 223 249 247 252 264 274 282 286 287 287 286 287 286 287 290 291 292 297 300 303
288 283 272 236 231 220 204 189 184 183 173 169 180 172 180 201 191 182 198 217 221 228 216 208 213 209 217 224 244 249 257 268 271 276 282 288 289 285 283 281 279 279 280 280 281 285 289 290 292
276 274 256 241 225 226 228 215 179 188 194 195 201 204 240 293 179 161 199 226 218 218 221 221 227 239 243 243 253 263 273 287 291 294 298 302 302 298 295 289 284 281 280 280 280 279 280 279 280
263 260 253 241 224 227 240 213 205 198 204 212 228 235 295 43 24 207 175 235 233 228 226 232 239 243 249 256 266 272 280 285 289 291 294 297 299 301 300 298 296 293 288 286 285 285 285 282 279
253 254 253 252 227 232 234 221 216 210 208 206 216 223 233 97 68 43 229 190 218 237 240 243 248 255 264 271 273 277 281 282 282 282 283 288 289 290 292 292 290 289 286 284 285 280 276 275 279
252 250 256 249 236 229 234 215 222 215 217 215 218 229 226 234 118 81 221 220 194 218 244 246 253 266 276 278 276 276 276 277 279 280 284 285 283 284 285 286 285 284 283 278 276 275 275 277 278
244 245 250 253 241 233 237 224 214 217 224 222 234 230 215 243 257 225 217 221 226 230 232 248 266 279 280 277 276 273 271 275 279 281 282 284 286 285 284 282 281 281 279 278 274 278 276 274 273
241 247 258 248 239 226 231 225 231 221 219 222 226 228 240 251 271 265 246 242 241 253 261 268 279 282 285 275 269 268 271 277 281 283 283 284 284 283 282 280 279 278 275 273 275 280 273 271 270
247 246 244 240 230 221 209 215 219 227 226 238 249 248 261 261 250 256 272 257 246 260 270 286 292 291 290 296 295 289 288 287 284 282 281 280 280 280 279 279 277 277 276 276 274 266 267 269 269
251 255 250 238 232 222 215 212 221 231 237 239 244 244 251 263 248 260 270 269 257 268 288 299 305 305 301 304 306 304 299 293 289 285 283 281 281 281 282 282 282 279 276 272 267 265 265 266 271
256 253 254 247 237 234 227 229 234 230 232 240 244 255 266 270 258 258 260 260 263 277 287 295 298 303 298 307 309 314 309 299 293 290 288 287 287 286 286 284 282 282 284 283 279 277 274 273 273
261 259 259 254 250 247 242 243 244 243 244 252 258 262 267 266 256 249 252 253 258 268 268 284 297 310 306 303 311 317 321 317 311 307 304 302 300 297 294 292 288 287 286 287 288 290 289 285 280
258 264 263 261 259 255 252 247 249 252 252 253 260 264 266 258 245 245 247 247 250 258 260 271 284 295 296 299 302 312 319 319 314 315 315 313 310 306 302 298 295 293 292 291 290 291 290 288 286
269 273 275 270 268 258 255 258 254 256 257 257 258 257 256 253 245 249 256 257 258 258 258 265 279 291 294 294 296 302 315 321 321 323 324 324 317 311 305 302 300 299 296 294 292 292 293 294 293
266 259 273 278 271 263 256 263 267 265 260 258 256 251 247 244 241 247 255 259 260 265 268 271 282 290 293 294 297 301 308 314 314 315 319 319 317 314 311 308 304 301 299 296 293 291 289 290 291
269 264 262 266 276 264 254 259 259 252 244 247 241 236 239 239 246 249 254 259 260 261 264 267 277 287 291 290 294 298 301 308 307 308 310 315 318 316 312 308 303 300 299 299 298 295 291 287 284
268 266 268 265 273 269 257 256 254 254 253 249 246 240 234 235 242 242 242 248 255 257 260 265 275 281 281 285 290 295 296 296 293 297 303 309 309 305 302 302 305 307 307 304 300 296 293 291 288
260 264 265 267 265 266 273 266 258 254 252 253 251 248 238 234 237 240 241 240 248 256 261 264 271 276 278 280 283 283 281 279 280 287 290 294 296 298 301 305 306 305 305 305 303 301 297 293 289
259 258 264 268 273 269 278 275 270 261 259 254 251 254 253 251 249 246 246 243 253 260 262 263 268 273 274 275 276 275 274 272 275 281 290 295 297 303 304 305 306 306 305 306 304 302 299 298 293
268 267 261 260 265 269 281 288 269 266 260 258 255 254 254 254 254 253 250 252 254 255 257 261 266 267 268 269 269 269 266 270 279 287 291 295 299 303 306 307 306 306 306 306 305 302 300 299 299
260 256 258 260 260 266 258 268 270 270 254 259 260 260 262 254 250 250 253 255 253 252 255 258 261 266 268 271 270 267 269 274 281 286 291 295 297 299 301 303 306 305 306 309 307 304 304 305 305
248 248 240 245 241 254 246 226 277 264 264 261 262 257 254 252 252 257 264 260 252 251 254 256 259 262 268 269 267 272 276 278 277 280 284 289 295 301 305 308 308 310 312 313 311 308 307 308 308
217 200 203 222 199 253 242 215 252 263 249 231 265 251 251 256 261 267 268 263 251 247 245 243 245 254 257 267 276 277 278 277 278 278 285 288 297 303 307 310 312 313 314 310 305 303 301 303 306
227 222 219 241 228 257 233 236 250 261 264 267 259 254 259 261 257 255 266 255 234 221 218 231 246 256 270 266 286 288 283 275 284 288 293 295 298 304 307 308 310 311 312 308 307 304 297 296 299
237 232 246 249 256 275 251 259 267 261 259 259 260 261 251 244 250 250 246 233 207 203 213 234 251 261 268 269 275 279 278 278 280 287 293 295 294 298 303 308 309 310 308 305 305 304 294 295 294
223 239 215 215 234 237 249 258 259 275 272 273 259 248 245 242 246 244 222 184 177 199 221 255 254 254 255 270 277 277 278 278 285 290 286 285 285 294 304 306 307 306 304 303 301 302 298 292 294
231 230 232 237 234 251 260 251 268 264 227 190 186 172 148 123 160 170 175 190 194 223 245 241 249 259 267 275 279 287 288 289 284 286 285 283 290 297 303 303 303 304 305 303 304 301 298 294 294
248 248 243 229 238 249 255 259 269 180 177 185 184 196 206 187 206 213 205 210 230 245 258 267 269 266 270 282 288 281 289 294 278 283 286 288 294 300 302 301 303 303 303 302 300 299 297 296 295
Height
3163 3163 3162 3163 3167 3162 3162 3164 3164 3165 3167 3168 3169 3171 3174 3174 3175 3179 3174 3175 3176 3178 3180 3181 3182 3181 3182 3184 3185 3186 3186 3185 3186 3186 3186 3185 3185 3185 3184 3184 3183 3182 3182 3182 3181 3180 3180 3179 3179
3161 3161 3162 3162 3163 3161 3162 3162 3163 3165 3166 3167 3169 3171 3172 3173 3173 3173 3174 3174 3175 3176 3178 3179 3180 3181 3182 3184 3184 3185 3185 3185 3184 3184 3184 3184 3184 3183 3183 3182 3182 3181 3181 3181 3180 3179 3179 3178 3178
3159 3159 3161 3161 3160 3160 3160 3161 3162 3163 3164 3167 3169 3170 3171 3171 3171 3173 3173 3174 3175 3176 3176 3178 3179 3181 3182 3182 3183 3182 3183 3183 3182 3182 3182 3182 3182 3181 3181 3181 3180 3180 3179 3179 3179 3179 3178 3178 3178
3157 3158 3160 3159 3159 3159 3159 3160 3161 3163 3164 3165 3167 3170 3171 3170 3170 3172 3173 3174 3175 3176 3176 3177 3178 3179 3179 3181 3182 3181 3182 3181 3181 3181 3181 3181 3180 3180 3179 3179 3178 3178 3177 3177 3177 3177 3177 3176 3176
3155 3155 3156 3156 3157 3158 3159 3159 3161 3162 3164 3164 3165 3167 3169 3168 3168 3170 3172 3173 3174 3176 3176 3178 3178 3180 3181 3181 3181 3181 3181 3181 3181 3181 3180 3180 3179 3178 3177 3177 3176 3175 3175 3175 3175 3175 3175 3174 3174
3153 3153 3153 3153 3155 3155 3156 3157 3159 3161 3163 3164 3165 3166 3168 3167 3168 3169 3170 3172 3173 3174 3175 3176 3177 3178 3179 3179 3179 3179 3179 3179 3179 3178 3178 3177 3177 3176 3176 3175 3175 3174 3173 3173 3174 3174 3174 3173 3171
3150 3150 3149 3151 3152 3153 3153 3155 3156 3158 3160 3163 3165 3165 3167 3167 3167 3167 3169 3170 3172 3173 3174 3175 3176 3176 3177 3177 3177 3177 3177 3176 3176 3175 3174 3174 3173 3172 3172 3172 3171 3171 3170 3170 3170 3170 3170 3170 3170
3148 3148 3147 3147 3149 3150 3151 3152 3154 3155 3157 3160 3163 3164 3166 3166 3166 3167 3168 3169 3170 3171 3171 3172 3173 3174 3174 3174 3174 3174 3174 3173 3173 3172 3171 3170 3169 3169 3168 3168 3167 3167 3166 3166 3165 3165 3165 3166 3166
3143 3144 3144 3145 3146 3147 3149 3150 3150 3152 3154 3157 3158 3161 3163 3165 3165 3166 3166 3167 3168 3168 3170 3171 3171 3171 3171 3171 3170 3170 3170 3169 3169 3168 3167 3166 3165 3165 3164 3163 3162 3161 3161 3161 3160 3161 3161 3161 3160
3140 3140 3142 3143 3144 3144 3145 3147 3148 3150 3151 3154 3156 3158 3160 3162 3163 3164 3164 3165 3166 3166 3167 3168 3168 3167 3166 3166 3166 3165 3165 3165 3164 3163 3162 3161 3160 3159 3158 3157 3156 3155 3155 3155 3155 3155 3155 3155 3156
3135 3135 3138 3140 3142 3142 3142 3144 3146 3147 3148 3151 3154 3155 3157 3159 3160 3160 3162 3163 3164 3164 3165 3165 3164 3163 3161 3161 3160 3160 3160 3159 3158 3157 3156 3155 3153 3152 3150 3149 3148 3148 3148 3148 3148 3148 3149 3149 3150
3133 3132 3134 3137 3137 3139 3140 3141 3142 3144 3146 3148 3151 3152 3153 3155 3156 3157 3158 3159 3160 3161 3162 3161 3159 3158 3158 3157 3156 3155 3154 3153 3151 3150 3150 3148 3147 3145 3144 3143 3141 3141 3140 3140 3141 3141 3142 3142 3143
3130 3129 3130 3133 3134 3136 3137 3137 3139 3140 3142 3144 3145 3147 3149 3151 3152 3153 3154 3155 3157 3157 3157 3157 3157 3156 3155 3154 3152 3150 3148 3146 3145 3144 3143 3142 3141 3140 3139 3138 3136 3135 3134 3134 3134 3134 3134 3134 3135
3128 3125 3126 3128 3130 3131 3133 3134 3134 3136 3138 3140 3141 3143 3144 3145 3147 3149 3150 3151 3152 3153 3153 3154 3154 3152 3151 3149 3147 3145 3143 3141 3139 3138 3138 3137 3136 3135 3133 3132 3131 3130 3128 3128 3127 3127 3127 3126 3127
3124 3123 3122 3123 3125 3126 3128 3127 3126 3132 3133 3134 3136 3138 3139 3140 3142 3144 3145 3146 3147 3148 3149 3149 3149 3148 3147 3145 3144 3142 3139 3136 3134 3133 3132 3131 3130 3129 3128 3127 3125 3124 3123 3121 3120 3119 3118 3118 3119
3121 3121 3118 3118 3120 3121 3122 3117 3124 3125 3127 3128 3129 3131 3133 3135 3136 3137 3137 3139 3141 3142 3142 3143 3143 3142 3141 3140 3139 3138 3135 3134 3132 3130 3129 3127 3125 3124 3122 3121 3119 3118 3117 3116 3114 3113 3111 3110 3109
3115 3114 3116 3115 3114 3114 3115 3114 3115 3117 3119 3121 3123 3125 3128 3130 3130 3131 3132 3132 3133 3134 3136 3137 3137 3136 3135 3134 3133 3132 3130 3128 3127 3126 3124 3122 3120 3118 3117 3115 3114 3112 3110 3109 3108 3106 3105 3104 3101
3110 3111 3109 3110 3109 3108 3107 3108 3111 3112 3112 3115 3116 3118 3121 3124 3126 3127 3128 3128 3128 3129 3130 3131 3131 3130 3129 3127 3127 3126 3125 3123 3122 3120 3119 3117 3115 3113 3112 3110 3109 3106 3104 3103 3101 3100 3098 3096 3095
3109 3107 3106 3107 3107 3103 3102 3101 3104 3105 3106 3108 3109 3111 3114 3117 3120 3121 3121 3121 3121 3122 3122 3123 3123 3123 3123 3122 3121 3121 3121 3120 3118 3116 3115 3112 3111 3109 3107 3105 3103 3101 3098 3096 3095 3094 3092 3089 3087
3103 3102 3101 3102 3103 3099 3097 3092 3096 3097 3098 3100 3103 3104 3107 3109 3111 3113 3114 3114 3115 3116 3116 3116 3116 3117 3117 3117 3117 3117 3116 3114 3112 3111 3109 3108 3107 3104 3102 3100 3097 3096 3093 3090 3087 3085 3085 3082 3080
3096 3095 3097 3097 3098 3095 3091 3079 3085 3090 3090 3093 3095 3097 3099 3101 3102 3104 3105 3106 3108 3110 3110 3110 3111 3111 3111 3112 3112 3111 3109 3108 3107 3105 3103 3103 3101 3099 3097 3095 3092 3090 3087 3083 3081 3078 3076 3074 3072
3092 3092 3091 3092 3094 3093 3091 3071 3076 3078 3080 3084 3087 3088 3091 3093 3093 3094 3095 3098 3101 3102 3102 3103 3104 3104 3104 3104 3105 3105 3103 3103 3103 3101 3099 3098 3096 3093 3091 3089 3085 3083 3079 3076 3074 3071 3069 3067 3065
3087 3090 3090 3089 3089 3089 3087 3089 3061 3072 3075 3079 3080 3081 3082 3084 3085 3086 3088 3091 3092 3092 3094 3095 3097 3098 3099 3099 3099 3100 3100 3098 3097 3096 3095 3093 3091 3089 3086 3082 3079 3076 3074 3071 3068 3065 3063 3060 3058
3083 3085 3086 3086 3086 3081 3082 3088 3042 3063 3062 3067 3069 3072 3073 3075 3078 3079 3080 3081 3082 3085 3087 3089 3090 3091 3092 3094 3093 3095 3094 3093 3092 3090 3087 3087 3085 3084 3082 3076 3072 3069 3067 3064 3061 3059 3057 3055 3053
3077 3080 3084 3084 3083 3069 3072 3076 3051 3057 3060 3062 3063 3066 3069 3069 3069 3070 3070 3072 3075 3077 3081 3084 3083 3084 3085 3088 3089 3089 3089 3088 3087 3084 3080 3078 3079 3076 3075 3071 3066 3064 3062 3060 3057 3053 3052 3050 3049
3070 3072 3069 3070 3071 3066 3067 3056 3053 3053 3054 3055 3058 3061 3061 3061 3062 3063 3064 3066 3071 3071 3073 3077 3079 3079 3081 3082 3083 3083 3083 3081 3080 3080 3078 3074 3072 3071 3069 3067 3061 3059 3056 3055 3053 3048 3047 3045 3044
3063 3065 3067 3066 3065 3067 3057 3050 3051 3050 3051 3051 3053 3055 3054 3053 3055 3057 3057 3058 3064 3067 3070 3072 3074 3074 3075 3076 3076 3076 3075 3074 3074 3073 3072 3068 3067 3065 3063 3060 3056 3055 3051 3049 3047 3043 3043 3042 3039
3055 3058 3063 3062 3059 3056 3043 3047 3047 3050 3050 3048 3050 3050 3051 3050 3050 3050 3051 3053 3059 3064 3066 3068 3068 3068 3069 3069 3070 3070 3070 3068 3068 3066 3065 3062 3061 3058 3056 3054 3050 3049 3046 3043 3041 3038 3037 3036 3034
3052 3050 3054 3054 3052 3045 3042 3043 3041 3046 3047 3045 3047 3047 3048 3048 3048 3048 3049 3051 3054 3058 3060 3061 3062 3062 3061 3062 3063 3063 3062 3061 3060 3059 3058 3055 3054 3052 3050 3047 3045 3042 3041 3039 3035 3032 3031 3030 3028
3048 3047 3047 3048 3047 3044 3043 3040 3040 3040 3040 3039 3040 3042 3045 3045 3045 3046 3045 3048 3050 3053 3054 3056 3057 3058 3057 3057 3056 3056 3056 3055 3054 3054 3053 3049 3048 3046 3044 3042 3039 3036 3034 3032 3031 3028 3026 3024 3022